Location: Rogalle
(42.8890°N, 1.1916°E)
Time: 07:16:15
(UTC+00:00)

COSMOS 2455 - Pass Details

Date: 13 December 2025
Orbit: 898 x 910 km, 67.1° (Epoch: 13 January)

Event Time Altitude Azimuth Distance (km) Brightness Sun altitude
Rises 19:13:08 0° 222° (SW) 3,518 6.5 -30.5°
Reaches altitude 10° 19:15:41 10° 226° (SW) 2,582 5.8 -31.0°
Maximum altitude 19:21:34 56° 305° (NW) 1,068 3.3 -32.1°
Enters shadow 19:21:48 56° 314° (NW) 1,072 3.3 -32.1°
